When you browse on this site, cookies collect data to enhance your experience and personalize the content and advertising you see.
Visit our Privacy Policy to learn more. By continuing to use the site, you agree to this use of cookies and data.
  • In Sweden
  • List of Countries
  • For 7 days
  • Water Temperature
  • Weather Map
  • Weather Widgets
  • user-avatar
    Login

    Hourly Weather Makarov

    Today, 7 June, Sunday

    Time Temperature Precipitation Wind Pressure Humidity
    00:00 +19°C° 0.1 mm 1 mps 746 mmHg 90%
    01:00 +19°C° 0.1 mm 1 mps 746 mmHg 91%
    02:00 +19°C° 0.1 mm 1 mps 747 mmHg 91%
    03:00 +19°C° 0.1 mm 1 mps 747 mmHg 91%
    04:00 +19°C° 0.1 mm 1 mps 747 mmHg 92%
    05:00 +19°C° 0.1 mm 1 mps 746 mmHg 92%
    06:00 +19°C° 0 mm 2 mps 747 mmHg 89%
    07:00 +21°C° 0 mm 2 mps 747 mmHg 85%
    08:00 +23°C° 0 mm 2 mps 747 mmHg 82%
    09:00 +24°C° 0 mm 3 mps 747 mmHg 73%
    10:00 +26°C° 0 mm 4 mps 747 mmHg 65%
    11:00 +27°C° 0 mm 4 mps 747 mmHg 56%
    12:00 +27°C° 0 mm 4 mps 747 mmHg 54%
    13:00 +28°C° 0 mm 5 mps 747 mmHg 52%
    14:00 +28°C° 0 mm 5 mps 747 mmHg 50%
    15:00 +28°C° 0 mm 4 mps 747 mmHg 55%
    16:00 +27°C° 0 mm 4 mps 746 mmHg 59%
    17:00 +27°C° 0 mm 4 mps 746 mmHg 64%
    18:00 +25°C° 0 mm 3 mps 746 mmHg 71%
    19:00 +22°C° 0 mm 3 mps 746 mmHg 78%
    20:00 +20°C° 0 mm 3 mps 746 mmHg 86%
    21:00 +20°C° 0 mm 3 mps 747 mmHg 88%
    22:00 +19°C° 0 mm 2 mps 747 mmHg 91%
    23:00 +19°C° 0 mm 2 mps 747 mmHg 93%

    Tomorrow, 8 June, Monday

    Time Temperature Precipitation Wind Pressure Humidity
    00:00 +18°C° 0 mm 2 mps 747 mmHg 93%
    01:00 +18°C° 0 mm 2 mps 747 mmHg 94%
    02:00 +17°C° 0 mm 2 mps 747 mmHg 94%
    03:00 +17°C° 0 mm 2 mps 747 mmHg 93%
    04:00 +17°C° 0 mm 2 mps 747 mmHg 92%
    05:00 +17°C° 0 mm 3 mps 746 mmHg 91%
    06:00 +19°C° 0 mm 3 mps 746 mmHg 85%
    07:00 +21°C° 0 mm 3 mps 747 mmHg 78%
    08:00 +24°C° 0 mm 3 mps 747 mmHg 72%
    09:00 +25°C° 0 mm 4 mps 747 mmHg 67%
    10:00 +26°C° 0 mm 4 mps 747 mmHg 62%
    11:00 +28°C° 0 mm 5 mps 747 mmHg 56%
    12:00 +28°C° 0 mm 5 mps 747 mmHg 56%
    13:00 +28°C° 0 mm 5 mps 746 mmHg 55%
    14:00 +28°C° 0 mm 5 mps 746 mmHg 55%
    15:00 +28°C° 0 mm 5 mps 746 mmHg 57%
    16:00 +28°C° 0 mm 4 mps 746 mmHg 60%
    17:00 +27°C° 0 mm 4 mps 745 mmHg 62%
    18:00 +26°C° 0 mm 4 mps 745 mmHg 68%
    19:00 +24°C° 0 mm 3 mps 745 mmHg 74%
    20:00 +22°C° 0 mm 3 mps 745 mmHg 80%
    21:00 +21°C° 0 mm 3 mps 746 mmHg 83%
    22:00 +20°C° 0 mm 3 mps 746 mmHg 86%
    23:00 +20°C° 0 mm 3 mps 746 mmHg 89%

    Day after tomorrow, 9 June, Tuesday

    Time Temperature Precipitation Wind Pressure Humidity
    00:00 +19°C° 0 mm 3 mps 746 mmHg 90%
    01:00 +19°C° 0 mm 3 mps 746 mmHg 91%
    02:00 +18°C° 0 mm 3 mps 746 mmHg 92%
    03:00 +18°C° 0 mm 3 mps 746 mmHg 92%
    04:00 +18°C° 0 mm 3 mps 746 mmHg 92%
    05:00 +18°C° 0 mm 3 mps 746 mmHg 92%
    06:00 +20°C° 0 mm 3 mps 746 mmHg 85%
    07:00 +21°C° 0 mm 3 mps 746 mmHg 78%
    08:00 +23°C° 0 mm 4 mps 746 mmHg 72%
    09:00 +25°C° 0 mm 4 mps 746 mmHg 66%
    10:00 +27°C° 0 mm 5 mps 746 mmHg 61%
    11:00 +28°C° 0 mm 5 mps 747 mmHg 56%
    12:00 +29°C° 0 mm 5 mps 746 mmHg 55%
    13:00 +29°C° 0 mm 5 mps 746 mmHg 54%
    14:00 +30°C° 0 mm 5 mps 746 mmHg 53%
    15:00 +29°C° 0 mm 5 mps 746 mmHg 56%
    16:00 +29°C° 0 mm 4 mps 746 mmHg 59%
    17:00 +29°C° 0 mm 4 mps 746 mmHg 62%
    18:00 +27°C° 0 mm 4 mps 746 mmHg 68%
    19:00 +25°C° 0 mm 3 mps 746 mmHg 74%
    20:00 +24°C° 0 mm 3 mps 746 mmHg 80%
    21:00 +22°C° 0 mm 3 mps 746 mmHg 82%
    22:00 +22°C° 0 mm 3 mps 746 mmHg 84%
    23:00 +21°C° 0 mm 3 mps 746 mmHg 86%

    10 June, Wednesday

    Time Temperature Precipitation Wind Pressure Humidity
    00:00 +20°C° 0 mm 3 mps 746 mmHg 87%
    01:00 +20°C° 0 mm 3 mps 746 mmHg 88%
    02:00 +19°C° 0 mm 3 mps 746 mmHg 90%
    03:00 +19°C° 0 mm 3 mps 746 mmHg 89%
    04:00 +19°C° 0 mm 3 mps 746 mmHg 89%
    05:00 +19°C° 0 mm 3 mps 746 mmHg 88%
    06:00 +21°C° 0 mm 3 mps 746 mmHg 82%
    07:00 +22°C° 0 mm 4 mps 746 mmHg 76%
    08:00 +25°C° 0 mm 4 mps 746 mmHg 70%
    09:00 +26°C° 0 mm 4 mps 746 mmHg 64%
    10:00 +28°C° 0 mm 4 mps 746 mmHg 59%
    11:00 +29°C° 0 mm 5 mps 746 mmHg 53%
    12:00 +29°C° 0 mm 5 mps 746 mmHg 53%
    13:00 +30°C° 0 mm 5 mps 746 mmHg 52%
    14:00 +30°C° 0 mm 5 mps 746 mmHg 52%
    15:00 +30°C° 0 mm 5 mps 745 mmHg 55%
    16:00 +29°C° 0 mm 4 mps 745 mmHg 59%
    17:00 +29°C° 0 mm 4 mps 745 mmHg 63%
    18:00 +27°C° 0 mm 3 mps 745 mmHg 69%
    19:00 +26°C° 0 mm 3 mps 745 mmHg 76%
    20:00 +24°C° 0 mm 2 mps 745 mmHg 82%
    21:00 +23°C° 0 mm 2 mps 745 mmHg 85%
    22:00 +23°C° 0 mm 2 mps 745 mmHg 87%
    23:00 +21°C° 0 mm 2 mps 745 mmHg 89%

    11 June, Thursday

    Time Temperature Precipitation Wind Pressure Humidity
    00:00 +21°C° 0 mm 2 mps 745 mmHg 90%
    01:00 +20°C° 0 mm 2 mps 745 mmHg 91%
    02:00 +20°C° 0 mm 2 mps 745 mmHg 91%
    03:00 +20°C° 0 mm 2 mps 745 mmHg 92%
    04:00 +20°C° 0 mm 3 mps 745 mmHg 92%
    05:00 +20°C° 0 mm 3 mps 745 mmHg 92%
    06:00 +21°C° 0 mm 3 mps 745 mmHg 86%
    07:00 +24°C° 0 mm 3 mps 745 mmHg 80%
    08:00 +26°C° 0 mm 3 mps 745 mmHg 74%
    09:00 +27°C° 0 mm 3 mps 745 mmHg 67%
    10:00 +29°C° 0 mm 4 mps 745 mmHg 60%
    11:00 +30°C° 0 mm 4 mps 745 mmHg 53%
    12:00 +32°C° 0 mm 5 mps 745 mmHg 51%
    13:00 +32°C° 0 mm 5 mps 745 mmHg 49%
    14:00 +33°C° 0 mm 5 mps 744 mmHg 47%
    15:00 +32°C° 0 mm 4 mps 744 mmHg 50%
    16:00 +32°C° 0 mm 4 mps 744 mmHg 54%
    17:00 +30°C° 0 mm 4 mps 744 mmHg 57%
    18:00 +28°C° 0 mm 3 mps 744 mmHg 66%
    19:00 +27°C° 0 mm 3 mps 744 mmHg 74%
    20:00 +25°C° 0 mm 3 mps 744 mmHg 82%
    21:00 +24°C° 0.1 mm 3 mps 744 mmHg 86%
    22:00 +23°C° 0.1 mm 2 mps 744 mmHg 90%
    23:00 +21°C° 0.1 mm 2 mps 744 mmHg 93%

    12 June, Friday

    Time Temperature Precipitation Wind Pressure Humidity
    00:00 +21°C° 0.2 mm 2 mps 744 mmHg 95%
    01:00 +21°C° 0.2 mm 2 mps 743 mmHg 96%
    02:00 +20°C° 0.2 mm 2 mps 743 mmHg 97%
    03:00 +20°C° 0 mm 2 mps 743 mmHg 96%
    04:00 +20°C° 0 mm 2 mps 743 mmHg 95%
    05:00 +20°C° 0 mm 2 mps 743 mmHg 95%
    06:00 +21°C° 0 mm 2 mps 743 mmHg 90%
    07:00 +24°C° 0 mm 3 mps 743 mmHg 85%
    08:00 +25°C° 0 mm 3 mps 743 mmHg 80%
    09:00 +27°C° 0 mm 3 mps 743 mmHg 72%
    10:00 +28°C° 0 mm 3 mps 743 mmHg 64%
    11:00 +30°C° 0 mm 3 mps 743 mmHg 56%
    12:00 +32°C° 0 mm 4 mps 743 mmHg 53%
    13:00 +32°C° 0 mm 4 mps 743 mmHg 50%
    14:00 +33°C° 0 mm 5 mps 743 mmHg 47%
    15:00 +33°C° 0 mm 5 mps 743 mmHg 50%
    16:00 +32°C° 0 mm 4 mps 743 mmHg 54%
    17:00 +32°C° 0 mm 4 mps 743 mmHg 57%
    18:00 +29°C° 0 mm 4 mps 743 mmHg 63%
    19:00 +27°C° 0 mm 4 mps 743 mmHg 70%
    20:00 +25°C° 0 mm 3 mps 743 mmHg 77%
    21:00 +24°C° 0 mm 3 mps 743 mmHg 80%
    22:00 +24°C° 0 mm 3 mps 743 mmHg 82%
    23:00 +22°C° 0 mm 3 mps 743 mmHg 85%
    Show more